Location: Holbach
(51.5399°N, 10.6036°E)
Time: 09:45:13
(UTC+00:00)

Cosmos 2369 Rocket - Pass Details

Date: 18 September 2020
Orbit: 827 x 854 km, 71.0° (Epoch: 30 October)

Event Time Altitude Azimuth Distance (km) Brightness Sun altitude
Exits shadow 22:59:47 22° 45° (NE) 1,786 4.2 -37.0°
Drops below altitude 10° 23:01:43 10° 38° (NE) 2,469 5.1 -37.0°
Sets 23:04:14 0° 33° (NNE) 3,413 6.0 -37.0°
